User: anonymous   Login
Location: Unspecified
(0.0000°N, 0.0000°E)
Time: 07:16:02
(UTC+01:00)
Language:

Delta 168 - Orbit

View from above orbital plane
View from above orbital plane
View from above satellite
View from above satellite

Ground track
Ground track

The orbit data is extracted from the following two-line orbital elements,

1 14051U 83041B   18021.25286206  .00000754  00000-0  50413-4 0  9993
2 14051  25.3331 336.8127 1095475 142.7266 225.4542 13.08876467607028
Epoch (UTC): 21 January 2018 06:04:07
Eccentricity: 0.1095475
inclination: 25.3331°
perigee height: 394 km
apogee height: 2060 km
right ascension of ascending node: 336.8127°
argument of perigee: 142.7266°
revolutions per day: 13.08876467
mean anomaly at epoch: 225.4542°
orbit number at epoch: 60702

The dashed part of the orbit path shows where the satellite is in the earth's shadow,  

DLR